Theta_e
309 309 309 310 310 310 311 311 311 311 311 312 313 314 314 316 317 318 323 322 322 322 319 321 322 323 323 322 322 323 316 325 330 330 328 330 331 335 337 337 339 339 336 341 343
309 309 309 310 310 310 311 311 311 311 312 312 314 314 314 316 318 319 327 327 322 317 321 322 323 323 323 323 323 320 318 331 330 328 323 325 329 334 336 339 341 342 339 336 342
310 310 310 310 311 311 311 311 311 312 312 313 314 314 315 317 319 326 325 321 317 320 320 322 323 323 324 324 324 323 322 329 330 326 327 326 326 328 330 328 341 341 333 332 334
310 310 310 310 310 311 311 311 311 312 312 314 314 314 316 318 326 324 321 317 319 320 320 322 323 324 322 320 326 324 326 329 327 326 326 323 327 327 328 332 335 336 334 333 333
310 310 310 310 310 311 311 311 311 312 313 314 314 315 317 323 325 323 318 318 319 320 321 322 323 324 322 324 325 326 325 328 327 327 327 327 326 326 328 333 337 338 339 337 333
314 313 313 312 312 312 312 312 312 312 313 314 314 316 317 325 323 323 319 318 321 322 322 322 323 323 324 324 323 326 327 327 327 326 327 327 326 326 328 333 342 336 335 335 333
314 314 316 318 319 319 319 315 313 313 314 314 314 317 317 322 323 323 321 321 322 322 322 322 322 322 323 321 325 326 324 323 325 326 326 327 323 327 331 341 341 339 338 339 338
316 318 319 319 320 320 320 318 314 313 313 314 316 316 320 325 321 322 322 322 322 322 322 322 322 322 322 323 324 321 322 321 323 325 326 325 323 328 330 345 343 342 342 339 338
315 318 319 321 321 322 319 315 314 314 316 316 317 324 326 325 323 322 322 322 323 322 322 321 321 321 321 320 319 320 319 321 326 325 326 324 325 329 332 345 340 338 337 337 335
313 318 320 322 322 323 321 317 316 317 319 319 318 322 325 325 323 322 321 322 322 322 322 322 322 320 319 319 320 323 324 325 326 326 326 326 325 324 332 342 338 335 336 334 334
313 315 321 322 322 323 325 328 329 323 321 325 328 325 326 324 324 322 321 322 322 322 322 325 322 323 325 324 324 324 325 326 327 325 326 326 326 329 343 342 339 337 334 331 331
313 314 316 321 320 324 325 326 326 326 326 327 328 327 325 324 325 324 323 323 324 323 326 324 325 325 325 326 326 328 327 327 326 326 324 324 327 333 333 331 333 335 335 332 329
313 314 316 319 320 324 326 327 326 327 327 329 329 325 324 324 325 324 324 324 325 325 326 326 325 326 326 325 327 326 326 326 326 326 325 326 332 334 332 337 334 333 333 332 331
313 314 315 318 323 326 327 327 326 326 330 332 325 325 325 324 325 324 324 324 325 327 325 326 326 326 326 328 326 326 327 327 327 324 323 325 326 333 337 336 332 329 327 326 327
312 314 315 316 321 325 324 324 325 328 342 325 324 325 325 324 325 324 324 326 327 326 326 328 326 325 327 326 327 326 325 324 324 322 322 324 331 335 338 337 332 328 324 321 323
312 313 315 323 320 325 324 323 325 330 339 329 327 326 324 325 326 325 326 326 326 327 327 328 329 327 328 329 327 325 324 324 323 322 325 328 333 342 341 335 331 325 322 320 321
312 313 314 315 323 323 324 326 330 331 335 331 325 325 324 325 326 326 327 328 327 328 329 331 331 331 330 330 326 325 322 323 325 325 326 326 340 338 334 332 327 323 319 318 317
313 313 315 316 323 324 326 328 333 332 332 330 328 326 326 327 327 327 326 327 330 328 327 330 335 331 331 329 327 325 326 323 329 329 327 325 338 336 329 325 322 320 318 317 317
313 319 325 326 323 325 327 332 331 333 330 329 329 326 327 328 328 328 328 332 330 328 329 328 331 329 328 327 325 327 326 323 327 326 323 335 336 332 329 326 323 320 318 318 318
313 320 324 323 322 325 329 330 331 328 327 328 329 331 333 331 332 331 332 332 332 330 328 329 330 329 327 324 325 328 326 324 324 328 327 329 333 335 333 328 324 320 319 318 318
317 326 326 324 324 325 328 330 328 325 325 327 328 330 331 331 332 333 334 332 330 329 330 330 329 329 325 325 326 326 327 326 326 327 326 327 333 329 327 325 323 320 319 319 318
321 330 325 322 325 326 327 328 326 326 323 325 327 328 328 332 333 332 333 333 327 329 330 328 328 329 325 324 326 326 330 327 326 327 323 323 328 325 325 324 321 320 320 320 318
322 326 324 322 329 331 331 326 324 324 325 326 327 328 329 330 330 330 330 328 329 330 328 327 328 328 328 326 325 325 325 328 327 324 328 329 332 322 323 324 323 321 320 319 318
325 327 327 325 327 329 329 329 325 324 323 323 325 325 327 328 327 330 331 328 325 325 326 330 329 330 329 326 324 325 324 327 327 327 330 331 328 326 324 324 322 321 318 317 316
323 327 325 323 327 328 327 327 327 327 325 325 326 327 328 331 333 332 331 330 329 328 330 328 331 328 324 323 323 323 329 328 331 330 331 327 325 323 322 322 322 319 317 314 312
321 321 322 321 324 325 325 326 327 327 326 327 329 330 331 330 330 329 329 330 330 330 329 328 326 328 326 325 328 329 328 330 328 328 326 324 323 322 321 320 318 316 314 312 311
318 320 323 323 322 325 324 328 327 325 325 324 329 331 329 328 325 325 324 325 326 326 328 327 328 328 329 330 329 329 329 327 326 324 323 323 323 321 321 317 314 313 312 311 311
Wind_Speed
4 4 5 5 6 6 6 6 7 7 7 7 8 10 12 15 12 9 6 5 9 10 8 6 11 15 14 17 15 17 1 7 6 3 6 9 4 2 7 23 15 25 18 20 19
3 3 3 4 4 5 6 6 7 7 7 7 8 11 13 15 11 15 8 12 13 10 8 11 16 17 23 18 16 7 4 7 8 8 5 13 4 6 7 15 12 23 26 25 9
3 3 3 3 4 4 6 6 7 6 6 7 9 11 13 13 13 7 2 9 6 5 7 11 14 21 22 21 24 14 7 8 6 13 16 13 20 10 3 2 32 31 34 22 23
4 3 3 3 4 4 5 5 5 6 6 7 9 10 12 10 3 4 8 3 3 7 11 14 14 14 8 7 12 4 12 4 4 10 6 7 12 14 17 5 12 37 32 22 17
5 5 4 4 4 4 5 5 5 5 5 7 8 9 9 6 13 5 4 2 3 6 13 18 23 23 4 10 9 3 8 2 2 3 1 9 13 9 15 6 27 39 27 26 20
7 5 4 4 4 4 4 5 5 4 5 6 7 9 9 7 5 2 3 4 1 9 18 22 12 19 12 16 6 10 12 14 6 1 3 3 10 15 16 45 37 35 32 25 17
7 5 4 4 5 5 5 5 4 4 5 6 6 9 10 11 4 2 2 5 9 13 16 15 14 15 20 12 18 10 5 9 14 10 3 5 10 9 22 39 47 37 34 25 20
7 6 6 6 7 7 6 5 4 4 4 5 6 8 9 5 6 8 8 11 8 7 11 11 10 14 16 17 15 8 5 5 13 7 3 5 6 6 20 50 39 34 30 28 22
8 7 7 8 8 8 5 2 1 2 3 5 5 7 11 7 3 7 9 14 12 11 13 10 9 13 19 6 7 6 8 7 5 8 3 7 5 5 23 50 39 36 32 28 25
9 7 6 7 8 8 5 4 1 1 3 7 7 9 6 2 4 2 7 8 9 12 18 16 8 3 5 2 5 6 2 6 6 5 7 6 6 8 19 47 36 35 35 29 24
10 7 4 5 6 7 7 5 5 4 8 9 8 11 13 2 1 5 4 9 11 16 8 21 4 5 3 5 7 7 9 8 5 5 3 4 5 18 39 37 34 34 34 35 23
10 8 4 4 4 5 8 4 9 9 11 17 21 17 10 8 7 7 5 11 13 9 13 6 6 3 7 5 4 10 10 8 9 10 8 8 8 25 28 24 33 29 29 33 24
10 7 4 4 3 2 7 5 10 10 4 16 16 15 9 9 17 13 3 15 12 8 6 6 4 6 4 7 6 8 9 9 8 9 8 5 10 14 12 30 36 33 32 28 24
9 7 5 2 4 7 15 7 9 12 2 5 5 5 8 10 3 1 4 10 11 6 6 2 7 3 6 10 9 6 7 7 9 8 6 1 4 9 8 20 25 25 22 21 21
9 6 4 3 8 8 12 9 13 5 3 9 8 7 8 13 9 3 3 9 7 6 4 5 9 10 9 6 5 4 9 8 8 11 8 18 6 4 6 10 12 18 16 13 18
9 5 1 3 3 9 15 12 8 3 3 3 8 7 6 14 5 8 5 3 9 5 7 3 14 6 4 8 12 10 13 12 7 4 4 6 4 3 2 4 7 14 11 15 20
9 5 3 5 4 13 13 11 1 3 1 3 7 9 10 7 4 4 1 3 1 4 5 9 10 6 13 11 11 9 6 4 6 5 5 7 9 5 12 14 15 13 13 17 17
8 3 2 2 4 12 7 4 3 7 11 4 5 3 3 8 4 6 2 4 9 9 6 4 4 4 6 2 4 5 4 4 3 4 9 12 4 5 13 22 17 14 13 15 15
6 1 1 3 7 7 10 1 3 4 9 11 10 2 6 2 4 1 3 6 7 8 4 5 1 9 10 6 5 1 2 5 2 4 4 4 5 6 12 15 20 13 14 13 11
8 3 4 2 7 2 2 4 3 7 10 8 6 10 8 3 6 5 7 5 3 10 12 6 3 7 11 10 11 2 3 5 4 3 4 3 6 5 8 9 10 10 14 15 10
8 7 2 1 5 6 2 5 6 13 10 7 7 7 10 8 8 3 5 7 9 7 15 6 5 7 7 6 6 6 5 4 2 3 3 1 4 7 11 8 6 6 11 7 4
8 4 2 2 2 4 3 1 6 8 8 3 4 4 5 7 7 4 5 4 6 7 3 5 2 2 6 8 7 4 2 2 3 4 2 3 3 6 5 7 10 10 8 5 3
15 6 1 3 2 4 10 2 4 7 9 8 7 7 7 7 5 6 7 18 19 8 4 5 4 4 8 8 11 7 7 6 1 5 6 6 2 3 6 6 3 6 3 3 5
7 3 5 2 12 7 6 8 5 5 3 2 6 12 6 4 8 4 8 10 18 8 8 7 4 2 2 6 8 12 9 13 6 4 1 3 9 3 3 4 5 8 10 3 6
7 6 10 4 9 13 12 8 9 4 5 9 3 7 3 6 5 8 3 5 10 8 3 5 1 6 8 9 12 12 13 13 9 3 2 6 3 4 5 10 11 15 7 13 16
8 8 12 12 10 7 5 5 8 8 5 6 7 15 15 8 6 7 6 6 2 2 3 3 3 6 6 9 11 13 14 11 13 11 11 9 3 7 4 22 19 17 18 17 14
12 5 5 10 8 3 5 5 6 7 6 4 16 8 11 12 15 7 5 5 4 3 3 2 3 4 4 9 9 10 5 12 15 9 5 5 2 3 12 18 20 18 16 13 14
Wind_Direction
292 287 282 274 270 272 278 283 286 290 299 305 306 305 308 311 304 274 266 289 296 305 291 292 295 286 268 257 261 255 44 263 260 341 191 186 138 183 144 136 125 167 101 82 166
335 309 288 283 284 282 280 280 283 291 297 298 301 307 316 317 292 249 284 272 288 285 268 298 302 315 244 252 250 188 137 299 261 318 2 359 357 186 166 112 111 115 108 129 225
9 350 325 299 280 276 275 278 282 287 290 294 303 309 316 318 317 277 269 270 270 250 264 284 297 300 286 281 270 224 202 245 331 27 9 346 321 303 40 5 150 121 128 110 208
4 345 327 310 291 284 280 281 284 286 288 292 301 309 316 312 331 272 314 290 203 255 285 299 299 292 263 267 267 263 272 249 5 43 339 322 351 356 357 87 112 148 143 158 175
2 350 336 319 312 302 295 290 286 280 279 287 302 311 327 300 271 284 342 137 203 280 298 294 285 293 268 310 268 310 297 301 94 325 286 340 325 345 329 83 137 128 123 142 145
10 3 350 345 334 325 315 301 290 282 273 282 302 315 320 275 194 349 125 152 241 294 309 304 320 339 325 333 2 321 313 329 322 341 326 57 318 324 38 78 122 105 98 110 110
12 12 17 7 350 338 326 315 296 270 264 275 294 312 290 257 290 228 26 264 284 300 304 321 348 339 321 330 324 310 344 308 286 253 108 60 341 36 67 78 91 88 99 103 86
15 1 351 347 344 335 321 303 282 256 237 252 296 309 275 284 256 227 269 268 262 264 263 297 307 311 301 292 304 310 295 280 269 148 153 109 297 40 73 92 90 88 88 89 90
4 352 351 354 357 355 347 345 107 176 219 266 297 303 274 255 259 203 248 260 301 262 269 276 272 267 277 298 315 299 258 249 278 98 101 68 337 86 86 103 97 93 90 86 81
3 346 350 357 5 17 21 33 345 225 285 294 252 295 255 258 153 205 241 266 262 267 283 246 222 220 309 47 241 317 282 19 79 35 51 22 343 320 103 93 97 95 92 85 82
1 349 329 336 350 347 358 329 318 263 243 226 265 257 327 175 182 188 208 234 245 263 268 270 170 266 246 29 348 339 344 33 108 38 62 8 317 15 94 93 94 94 100 97 90
356 355 313 291 320 323 332 315 345 307 300 275 272 267 288 305 245 175 223 244 252 245 260 300 127 51 354 326 343 30 34 359 347 2 21 346 51 60 63 77 82 84 87 89 93
353 351 329 255 264 269 309 331 340 332 283 295 222 235 220 253 266 173 244 272 266 287 299 65 95 44 301 333 58 49 28 2 339 327 333 322 64 65 66 72 65 63 79 83 95
348 344 340 276 286 307 300 332 332 331 326 238 153 251 175 238 286 25 304 299 314 307 1 21 104 63 10 47 42 8 356 339 325 353 300 44 270 54 70 67 66 63 63 78 94
341 336 336 281 302 334 11 335 325 339 330 165 165 177 204 222 149 146 278 315 307 346 12 296 47 2 38 27 11 328 25 356 321 306 287 276 92 191 100 76 76 74 60 71 84
333 322 294 288 255 337 333 321 311 6 266 187 142 176 243 230 201 148 215 271 286 324 308 343 63 29 43 1 32 16 3 336 331 300 16 7 93 37 5 103 82 70 63 70 71
327 310 266 275 344 352 320 315 38 226 193 211 169 164 212 211 168 151 142 308 87 20 348 42 35 22 31 351 12 3 2 343 10 353 251 353 64 82 56 71 92 93 78 77 78
328 321 271 311 342 327 322 353 248 306 350 12 16 331 261 158 180 124 176 309 53 47 359 34 46 304 176 91 251 293 81 129 278 277 281 321 58 87 87 87 85 105 121 104 93
342 226 168 62 347 320 318 305 261 45 7 359 344 183 299 77 48 59 185 64 46 52 49 3 261 4 26 343 323 325 20 269 191 302 29 128 91 116 115 121 129 156 140 107 90
353 276 302 36 311 345 11 250 261 54 23 350 346 6 356 8 23 335 44 2 90 65 23 324 344 30 360 341 354 2 336 19 2 334 313 83 83 356 122 121 130 138 124 118 120
346 337 51 162 285 295 223 266 30 61 33 5 357 341 345 9 354 40 58 36 27 39 57 26 65 324 2 351 11 1 22 30 68 1 242 335 82 50 83 93 107 100 115 121 96
9 332 34 108 254 222 236 76 340 27 8 339 332 322 321 18 360 34 96 69 21 36 68 331 126 4 301 315 53 30 233 337 144 255 255 137 89 358 42 113 139 160 166 123 52
344 297 351 107 5 339 332 83 83 17 7 18 343 5 12 10 3 15 106 57 50 45 28 323 7 12 341 347 359 345 327 357 9 32 55 347 96 75 76 114 86 185 129 83 89
349 333 4 311 13 3 345 8 102 117 307 24 323 324 339 326 308 341 88 68 62 50 18 38 14 64 266 293 319 323 327 66 76 76 343 345 97 85 212 136 200 152 129 63 38
5 15 5 330 359 349 0 356 333 356 61 0 324 337 338 24 43 25 62 65 36 348 64 93 357 339 319 312 308 323 50 51 75 204 67 145 126 216 205 207 205 148 136 81 50
24 2 341 302 325 332 312 314 305 2 45 20 23 18 53 58 64 47 59 55 165 251 51 34 296 315 310 309 334 67 35 102 58 67 117 136 160 236 293 70 68 61 60 53 29
19 357 348 291 314 284 255 272 60 56 17 28 50 35 41 358 349 2 344 304 211 184 104 83 6 346 296 334 320 48 11 87 84 59 101 61 190 238 87 69 63 60 48 39 47